Regional Weather Roundup
Issued by NWS Upton, NY

Current Version | Previous Version | Graphics & Text | Print | Product List | Glossary Off
Versions: 1 2 3 4 5 6 7 8 9 10 11 12 13 14 15 16 17 18 19 20 21 22 23 24 25 26 27 28 29 30 31 32 33 34 35 36 37 38 39 40 41 42 43 44 45 46 47 48 49 50

437
ASUS41 KOKX 281504
RWROKX

REGIONAL WEATHER ROUNDUP
NATIONAL WEATHER SERVICE NEW YORK NY
1100 AM EDT SAT MAY 28 2016

NOTE: "FAIR" INDICATES FEW OR NO CLOUDS BELOW 12,000 FEET WITH NO
SIGNIFICANT WEATHER AND/OR OBSTRUCTIONS TO VISIBILITY.

NYZ071-072-176-178-NJZ106-104-281600-
NEW YORK CITY METRO AREA


CITY           SKY/WX    TMP DP  RH WIND       PRES   REMARKS
CENTRAL PARK   SUNNY     83  64  52 VRB6      30.15S
LAGUARDIA APRT MOSUNNY   85  69  58 SW6       30.12S
KENNEDY INTL   MOSUNNY   77  63  61 S10       30.14S
NEWARK/LIBERTY MOSUNNY   85  65  51 SW9       30.12S
BRNX BOT. GARD   N/A     84  64  51 SE5       30.13R
TETERBORO      SUNNY     86  65  49 W7        30.10F
$$

NYZ177-179-078>081-281600-
LONG ISLAND NEW YORK

CITY           SKY/WX    TMP DP  RH WIND       PRES   REMARKS
FARMINGDALE    SUNNY     79  64  60 VRB5      30.13S
ISLIP          MOSUNNY   76  63  64 S8        30.13S
SHIRLEY        SUNNY     73  62  68 S8        30.15S
RIVERHEAD        N/A     81  68  65 SW3       30.12S
WESTHAMPTON    SUNNY     70  60  70 SW13      30.16S
EAST HAMPTON   FAIR      70  60  70 SW12      30.14S
MONTAUK POINT    N/A     68  60  75 S7        30.15S
$$

NYZ052-065-067-281600-
HUDSON VALLEY

CITY           SKY/WX    TMP DP  RH WIND       PRES   REMARKS
WHITE PLAINS   SUNNY     84  67  56 VRB3      30.13S
NEWBURGH       SUNNY     82  72  69 W9        30.13S
MONTGOMERY     SUNNY     84  72  67 S6        30.10F
POUGHKEEPSIE   SUNNY     85  68  56 W5        30.09F
ALBANY         PTSUNNY   85  65  51 CALM      30.09F
$$

NJZ001-105-106-008-010-013-015-019>022-104-281600-
NEW JERSEY

CITY           SKY/WX    TMP DP  RH WIND       PRES   REMARKS
NEWARK/LIBERTY MOSUNNY   85  65  51 SW9       30.12S
TETERBORO      SUNNY     86  65  49 W7        30.10F
CALDWELL       SUNNY     84  67  56 S8        30.12S
MORRISTOWN     MOSUNNY   84  68  58 SW7       30.13S
SOMERVILLE     SUNNY     83  69  62 MISG      30.12S
SUSSEX         SUNNY     83  69  62 VRB6      30.13S
ANDOVER          N/A     82  67  60 VRB5      30.14S
TRENTON        SUNNY     82  67  60 SW6       30.14S
MILLVILLE      SUNNY     79  65  62 VRB3      30.18R
ATLANTIC CITY  SUNNY     82  65  56 VRB5      30.17S
WRIGHTSTOWN    NOT AVBL
TOMS RIVER     SUNNY     86  64  48 W5        30.16R
BELMAR         NOT AVBL
$$

PAZ047>061-062-071-281600-
EASTERN PENNSYLVANIA

CITY           SKY/WX    TMP DP  RH WIND       PRES   REMARKS
PHILADELPHIA   MOSUNNY   81  64  56 SW7       30.16S
ALLENTOWN      SUNNY     82  68  62 SW7       30.14F
SCRANTON       SUNNY     83  67  58 SW5       30.14F
$$

CTZ002-004>006-009-010-012-RIZ004-006-007-MAZ004-011-015-281600-
SOUTHERN NEW ENGLAND
 IN CT

CITY           SKY/WX    TMP DP  RH WIND       PRES   REMARKS
BRADLEY INTL   MOSUNNY   82  67  60 VRB3      30.09S
HARTFORD       SUNNY     85  69  58 S3        30.10S
DANBURY        SUNNY     82  68  62 SW7       30.13S
WTRBRY/OXFORD  MOSUNNY   81  66  61 NW3       30.15R
BRIDGEPORT     SUNNY     79  62  56 SW10      30.12S
MERIDEN        SUNNY     83  66  56 SE6       30.10F
NEW HAVEN      SUNNY     74  62  66 SW8       30.12S
CHESTER        FAIR      79  64  61 CALM      30.13S
GROTON         SUNNY     69  63  81 S8        30.12S
WILLIMANTIC    SUNNY     84  67  56 VRB3      30.11S

 IN RI

CITY           SKY/WX    TMP DP  RH WIND       PRES   REMARKS
PROVIDENCE     PTSUNNY   77  62  59 SE14      30.11R
BLOCK ISLAND   SUNNY     67  59  75 SW25G32   30.14S
WESTERLY       SUNNY     75  59  57 SW10      30.13S

 IN MA

CITY           SKY/WX    TMP DP  RH WIND       PRES   REMARKS
BOSTON         CLOUDY    82  66  58 SW8       30.07S
WORCESTER      NOT AVBL
WESTFIELD      SUNNY     79  68  69 CALM      30.10S
PROVINCETOWN   SUNNY     74  62  66 SW13      30.10R
NANTUCKET      CLOUDY    64  57  78 SW18      30.14S
$$

ANZ330-335-338-340-345-350-353-355-281600-
COASTAL MARINE OBSERVATIONS


STATION/POSITION TIME  SKY/WX   TEMP    WIND        PRES    VSBY  WAVE
                                AIR SEA DIR/SP/G                  HT/PER
                 (UTC)          (F)     (DEG/KT/KT) (MB)    (MI)  (FT/S)
NY HARB ENTRANCE 1350            60 58  200/ 10/ 10 1020.2          2/ 7
20S FIRE ISLAND  1350            61 58  210/ 12/ 14 1020.7          3/ 5
GREAT SOUTH BAY  1400            65 69  230/ 12/ 14   N/A
23 SSW MONTAUK P 1450            60 56  220/ 14/ 16 1020.6          3/ 5
15 E BARNEGAT LI 1422               59                N/A           3/ 5
HUDSON CANYON    1350            61 58              1022.2          2/ 5
KINGS POINT      1400            76 61              1019.8
EXECUTION ROCKS  NOT AVBL
CENTRAL LI SOUND 1400            65      50/  2/  4   N/A           1
EASTERN LI SOUND 1400            64 56  230/  2/  4   N/A
ROBBINS REEF     1406            75     260/  4/  7 1019.6
$$


>>>>>>>>>>>>>>>>>>>>>>>>>>>> KEY <<<<<<<<<<<<<<<<<<<<<<<<<<<
>                                                          <
>     SKY/WX - SKY CONDITION/PRESENT WEATHER               <
>     TMP    - TEMPERATURE IN FAHRENHEIT                   <
>     DP     - DEWPOINT IN FAHRENHEIT                      <
>     RH     - RELATIVE HUMIDITY IN PERCENT                <
>     WIND   - DIRECTION AND SPEED IN MPH                  <
>     PRES   - MEAN SEA LEVEL PRESSURE IN INCHES OF HG     <
>     WCI    - WIND CHILL INDEX                            <
>     VSB    - VISIBILITY IN MILES                         <
>     HX     - HEAT INDEX                                  <
>     TC     - TEMPERATURE IN CELSIUS                      <
>     VRB    - VARIABLE WIND DIRECTION                     <
>                                                          <
>>>>>>>>>>>>>>>>>>>>>>>>>>>> KEY <<<<<<<<<<<<<<<<<<<<<<<<<<<






USA.gov is the U.S. government's official web portal to all federal, state and local government web resources and services.